Torna al catalogo

STARLINK-1543

AttivoComunicazioniVLEO
NORAD 46053·PAYLOAD·🇺🇸 United States

Lanciato Aug 7, 2020 da Cape Canaveral Space Force Station

Loading…

Prossimi Passaggi (prossime 24 ore)

TLE

AggiornatoSource: CelesTrak SupGP

Epoca: Sep 15, 2026, 01:07 UTC

1 46053C 20055AC  26258.04701389  .00041296  00000+0  13293-2 0  2584
2 46053  53.1596 312.7941 0001324  77.5543 109.4589 15.31649770    17

Traccia STARLINK-1543 in tempo reale con AllMySat

Download on the App Store